Comodoro Rivadavia, Argentina

2:53 PM America en Diciembre 13, 2017 (GMT +0000)
GEN. Enrique Mosconi International

Tiempo Historia de SAVC - Agosto, 2017

Change the Weather History Date:

Domingo, Agosto 13, 2017

  Actual Average Record
Temperature  
Temperatura media 43 ° F -  
Temperatura máxima 53 ° F 57 ° F 60 ° F (1998)
Temperatura mínima 33 ° F 39 ° F 26 ° F (1999)
Degree Days  
Grados día de calefacción 22    
Moisture  
Punto de rocío 35 ° F    
Average Humidity 55    
Maximum Humidity 76    
Minimum Humidity 30    
Precipitación  
Precipitación 0.00 pul 0.03 pul - ()
Presión al nivel del mar  
Presión al nivel del mar 29.26 pul    
Viento  
Velocidad del viento 15 mph ()    
Velocidad máxima del viento 25 mph    
Max Gust Speed 38 mph    
Visibilidad 11.5 Millas    
Eventos Lluvia    
Averages and records for this station are not official NWS values.
T = Trace of Precipitation, MM = Missing Value Source: Averaged Metar Reports

Daily Weather History Graph

Daily Weather History Graph

Search for Another Location

Airport or City:

Trip Planner

Search our weather history database for the weather conditions in past years. The results will help you decide how hot, cold, wet, or windy it might be!

Date:

Astronomía

Aug. 13, 2017 Salida Puesta
Hora real 8:31 AM -03 6:38 PM -03
Crepúsculo civil 8:00 AM -03 7:09 PM -03
Crepúsculo náutico 7:25 AM -03 7:44 PM -03
Crepúsculo astronómico 6:50 AM -03 8:19 PM -03
Luna 12:08 AM -03 11:35 AM -03
Horas de luz 11h 09m
Horas de luz
10h 07m
Gibosa menguante, 66% of the Moon is Illuminated
Ago 13
Gibosa menguante
Ago 14
Cuarto menguante
Ago 21
Nueva
Ago 29
Cuarto creciente
Sep 6
Luna llena

Hourly Weather History & Observations

Hora (-03) Temp. Vientos helados Punto de rocío Humedad Presión Visibilidad Wind Dir Velocidad del viento Velocidad de ráfagas Precip Eventos Condiciones
12:00 AM 45 ° F - 33 ° F 52% 29.57 pul 19 mi ONO 4.6 mph - -   Muy nublado
12:00 AM 44.6 ° F 42.2 ° F 33.8 ° F 66% 29.59 pul - ONO 4.6 mph - N/A   Despejado
1:00 AM 48.2 ° F - 33.8 ° F 58% 29.56 pul - ONO 9.2 mph 20.7 mph N/A   Despejado
2:00 AM 48.2 ° F - 32.0 ° F 54% 29.50 pul - NO 12.7 mph 29.9 mph N/A   Despejado
3:00 AM 49 ° F - 30 ° F 36% 29.42 pul 12 mi NO 17.3 mph - -   Viento de arena
3:00 AM 50.0 ° F - 30.2 ° F 47% 29.44 pul - NO 17.3 mph 29.9 mph N/A   Despejado
4:00 AM 48.2 ° F - 32.0 ° F 54% 29.39 pul - NO 20.7 mph 32.2 mph N/A   Despejado
5:00 AM 48.2 ° F - 28.4 ° F 46% 29.33 pul - NO 21.9 mph 38.0 mph N/A   Despejado
6:00 AM 50 ° F - 30 ° F 34% 29.27 pul 19 mi NO 21.9 mph - -   Nublado
6:00 AM 50.0 ° F - 30.2 ° F 47% 29.30 pul - NO 21.9 mph 32.2 mph N/A   Despejado
7:00 AM 50.0 ° F - 30.2 ° F 47% 29.27 pul - NO 13.8 mph - N/A   Despejado
8:00 AM 51.8 ° F - 30.2 ° F 44% 29.24 pul - NO 23.0 mph - N/A   Despejado
9:00 AM 51 ° F - 29 ° F 30% 29.18 pul 16 mi NO 24.2 mph - -   Viento de arena
9:00 AM 51.8 ° F - 28.4 ° F 41% 29.21 pul - NO 24.2 mph 35.7 mph N/A   Despejado
10:00 AM 50.0 ° F - 32.0 ° F 50% 29.21 pul 6.2 mi NO 21.9 mph - N/A Lluvia Lluvia débil
11:00 AM 48.2 ° F - 35.6 ° F 62% 29.18 pul 6.2 mi NO 23.0 mph - N/A Lluvia Lluvia débil
12:00 PM 48 ° F - 37 ° F 54% 29.14 pul 16 mi NO 23.0 mph - - Lluvia Lluvia débil
12:00 PM 48.2 ° F - 37.4 ° F 66% 29.18 pul 6.2 mi NO 23.0 mph - N/A Lluvia Lluvia débil
1:00 PM 48.2 ° F - 37.4 ° F 66% 29.15 pul 6.2 mi NO 21.9 mph 36.8 mph N/A Lluvia Lluvia débil
2:00 PM 51.8 ° F - 39.2 ° F 62% 29.09 pul 6.2 mi NO 19.6 mph - N/A Lluvia Lluvia débil
3:00 PM 53 ° F - 39 ° F 49% 29.06 pul 19 mi NO 24.2 mph - - Lluvia Lluvia débil
3:00 PM 51.8 ° F - 39.2 ° F 62% 29.09 pul 6.2 mi NO 24.2 mph - N/A   Muy nublado
4:00 PM 53.6 ° F - 41.0 ° F 62% 29.09 pul 6.2 mi ONO 25.3 mph - N/A   Muy nublado
5:00 PM 53.6 ° F - 39.2 ° F 58% 29.12 pul 6.2 mi Oeste 23.0 mph - N/A   Muy nublado
6:00 PM 53 ° F - 39 ° F 47% 29.12 pul 19 mi Oeste 19.6 mph - -   Nubes dispersas
6:00 PM 51.8 ° F - 39.2 ° F 62% 29.15 pul 6.2 mi Oeste 19.6 mph - N/A   Muy nublado
7:00 PM 51.8 ° F - 39.2 ° F 62% 29.21 pul - ONO 10.4 mph - N/A   Despejado
8:00 PM 48.2 ° F - 41.0 ° F 76% 29.24 pul - ONO 12.7 mph - N/A   Despejado
9:00 PM 48 ° F - 40 ° F 66% 29.23 pul 19 mi ONO 12.7 mph - -   Despejado
9:00 PM 48.2 ° F - 41.0 ° F 76% 29.24 pul - ONO 12.7 mph - N/A   Despejado
10:00 PM 48.2 ° F - 35.6 ° F 62% 29.27 pul - ONO 15.0 mph - N/A   Despejado
11:00 PM 48.2 ° F - 35.6 ° F 62% 29.30 pul - ONO 17.3 mph - N/A   Despejado